Regional Weather Roundup
Issued by NWS

Home | Current Version | Previous Version | Text Only | Print | Product List | Glossary Off
Versions: 1 2 3 4 5 6 7 8 9 10 11 12 13 14 15 16 17 18 19 20 21 22 23 24 25 26 27 28 29 30 31 32 33 34 35 36 37 38 39 40 41 42 43 44 45 46 47 48 49 50

390
ASUS45 KSLC 081210
RWRUT

UTAH REGIONAL WEATHER ROUNDUP
NATIONAL WEATHER SERVICE SALT LAKE CITY UT
500 AM MST MON FEB 08 2016

UTZ001>011-023>025-081300-

NORTHERN UTAH

CITY           SKY/WX    TMP DP  RH WIND       PRES   REMARKS
BRIGHAM CITY     N/A     11   8  86 CALM      30.69S VSB 1/2
HILL AFB       PTCLDY    25  14  64 E9        30.66R WCI  15
LOGAN          FOG       12  11  95 CALM      30.70R VSB<1/4
OGDEN          PTCLDY    24  18  77 S5        30.67R WCI  18
PROVO AIRPORT  PTCLDY    10   7  85 CALM      30.67S
SALT LAKE CITY PTCLDY    24  20  84 E7        30.66S WCI  16
VERNAL         CLOUDY     9   5  84 N5        30.59S WCI   1
WENDOVER       PTCLDY    25  21  86 W3        30.65F
HEBER CITY     PTCLDY     5   1  85 CALM      30.63S
WEST JORDAN    CLEAR     25  21  86 CALM      30.65S

$$

UTZ012>022-026-027-081300-

SOUTHERN/CENTRAL UTAH

CITY           SKY/WX    TMP DP  RH WIND       PRES   REMARKS
BLANDING       CLEAR     28  14  55 E3        30.54R
BRYCE CANYON   PTCLDY     9   4  80 W5        30.57R WCI   1
CEDAR CITY     PTCLDY    14   9  80 S5        30.59R WCI   6
DELTA          CLOUDY     5   2  90 CALM      30.66S VSB<1/4
HANKSVILLE     MOCLDY    10  10 100 CALM      30.61S
MILFORD        MOCLDY     9  52 100 CALM      30.63R HAZE
MOAB/CYNLANDS  PTCLDY    10   8  92 CALM      30.57S
PRICE          PTCLDY    20  13  74 NE6       30.51R WCI  12
ST GEORGE      MOSUNNY   39  21  48 NE7       30.52S WCI  34
KANAB          CLEAR     36  21  55 N14       30.53S WCI  27

$$

REGIONAL REPORTS     COLORADO/ARIZONA

CITY           SKY/WX    TMP DP  RH WIND       PRES   REMARKS
CRAIG, CO      CLOUDY    -6 -11  79 CALM      30.57R
GRAND JUNCTION CLOUDY    15  12  88 SE7       30.56R WCI   5
RIFLE          CLOUDY    13   8  81 CALM      30.59R
MONTROSE       CLOUDY    18  10  71 SE6       30.58S WCI  10
CORTEZ         CLOUDY    15  11  83 E10       30.45S WCI   2
PAGE, AZ       CLEAR     30  22  72 SE3       30.53R
GRAND CANYON   PTCLDY    25  17  72 NE8       30.49R WCI  16
KINGMAN        CLEAR     41  20  43 NE7       30.39S
FLAGSTAFF      CLEAR     35  12  38 E9G18     30.45R WCI  28

$$

REGIONAL REPORTS    NEVADA/IDAHO/WYOMING

CITY           SKY/WX    TMP DP  RH WIND       PRES   REMARKS
LAS VEGAS, NV  CLEAR     52  22  30 NE12      30.41S
ELY            PTCLDY     7   4  87 S12       30.63F WCI  -8
ELKO           MOCLDY    10   6  84 E5        30.68S WCI   2
POCATELLO, ID  CLOUDY    24  23  96 NE5       30.69S FOG     WCI  18
BURLEY         CLEAR     25  24  96 E5        30.65R WCI  19
EVANSTON, WY   CLOUDY    20  14  77 SW7       30.60R WCI  11
ROCK SPRINGS   CLOUDY    26  16  65 W23       30.49S WCI  11

$$




USA.gov is the U.S. government's official web portal to all federal, state and local government web resources and services.